• In Germany
  • List of Countries
  • For 7 days
  • Water Temperature
  • Satellite Maps
  • Weather Map
  • Weather Widgets
  • user-avatar
    Login

    Hourly Weather Annaba

    Today, 27 May, Saturday

    Time Temperature Precipitation Wind Pressure Humidity
    00:00 +19°C° 0 mm 4 mps 759 mmHg 83%
    01:00 +19°C° 0 mm 4 mps 759 mmHg 82%
    02:00 +19°C° 0 mm 4 mps 759 mmHg 81%
    03:00 +19°C° 0 mm 4 mps 759 mmHg 80%
    04:00 +19°C° 0 mm 4 mps 759 mmHg 80%
    05:00 +20°C° 0 mm 4 mps 759 mmHg 73%
    06:00 +22°C° 0 mm 4 mps 760 mmHg 66%
    07:00 +23°C° 0 mm 4 mps 760 mmHg 60%
    08:00 +26°C° 0 mm 4 mps 760 mmHg 53%
    09:00 +28°C° 0 mm 5 mps 760 mmHg 46%
    10:00 +32°C° 0 mm 5 mps 760 mmHg 40%
    11:00 +32°C° 0 mm 5 mps 760 mmHg 38%
    12:00 +33°C° 0 mm 6 mps 760 mmHg 36%
    13:00 +34°C° 0 mm 7 mps 760 mmHg 34%
    14:00 +34°C° 0 mm 7 mps 760 mmHg 34%
    15:00 +34°C° 0 mm 7 mps 759 mmHg 35%
    16:00 +34°C° 0 mm 8 mps 759 mmHg 35%
    17:00 +32°C° 0.1 mm 7 mps 759 mmHg 41%
    18:00 +29°C° 0.1 mm 7 mps 759 mmHg 47%
    19:00 +27°C° 0.1 mm 6 mps 759 mmHg 53%
    20:00 +26°C° 0.1 mm 6 mps 759 mmHg 58%
    21:00 +23°C° 0.1 mm 5 mps 760 mmHg 64%
    22:00 +21°C° 0.1 mm 4 mps 760 mmHg 69%
    23:00 +21°C° 0 mm 4 mps 760 mmHg 70%

    Tomorrow, 28 May, Sunday

    Time Temperature Precipitation Wind Pressure Humidity
    00:00 +21°C° 0 mm 4 mps 760 mmHg 70%
    01:00 +21°C° 0 mm 4 mps 760 mmHg 71%
    02:00 +20°C° 0 mm 4 mps 760 mmHg 73%
    03:00 +20°C° 0 mm 4 mps 760 mmHg 75%
    04:00 +19°C° 0 mm 4 mps 760 mmHg 77%
    05:00 +21°C° 0 mm 4 mps 760 mmHg 71%
    06:00 +22°C° 0 mm 4 mps 760 mmHg 65%
    07:00 +25°C° 0 mm 4 mps 760 mmHg 59%
    08:00 +27°C° 0 mm 4 mps 761 mmHg 53%
    09:00 +29°C° 0 mm 4 mps 761 mmHg 47%
    10:00 +32°C° 0 mm 5 mps 761 mmHg 40%
    11:00 +33°C° 0 mm 5 mps 760 mmHg 38%
    12:00 +34°C° 0 mm 6 mps 760 mmHg 35%
    13:00 +35°C° 0 mm 7 mps 760 mmHg 33%
    14:00 +34°C° 0 mm 7 mps 759 mmHg 33%
    15:00 +34°C° 0 mm 8 mps 759 mmHg 33%
    16:00 +34°C° 0 mm 8 mps 759 mmHg 33%
    17:00 +32°C° 0 mm 8 mps 759 mmHg 36%
    18:00 +29°C° 0 mm 8 mps 759 mmHg 40%
    19:00 +28°C° 0 mm 7 mps 759 mmHg 43%
    20:00 +26°C° 0 mm 6 mps 759 mmHg 50%
    21:00 +22°C° 0 mm 6 mps 760 mmHg 56%
    22:00 +20°C° 0 mm 5 mps 760 mmHg 62%
    23:00 +20°C° 0 mm 5 mps 760 mmHg 63%

    Day after tomorrow, 29 May, Monday

    Time Temperature Precipitation Wind Pressure Humidity
    00:00 +20°C° 0 mm 4 mps 760 mmHg 64%
    01:00 +19°C° 0 mm 4 mps 760 mmHg 64%
    02:00 +19°C° 0 mm 4 mps 760 mmHg 65%
    03:00 +19°C° 0 mm 4 mps 759 mmHg 65%
    04:00 +18°C° 0 mm 4 mps 759 mmHg 66%
    05:00 +20°C° 0 mm 4 mps 759 mmHg 61%
    06:00 +21°C° 0 mm 4 mps 759 mmHg 57%
    07:00 +23°C° 0 mm 4 mps 759 mmHg 52%
    08:00 +26°C° 0 mm 4 mps 759 mmHg 46%
    09:00 +28°C° 0 mm 4 mps 759 mmHg 40%
    10:00 +32°C° 0 mm 4 mps 759 mmHg 34%
    11:00 +33°C° 0 mm 5 mps 759 mmHg 31%
    12:00 +34°C° 0 mm 5 mps 758 mmHg 28%
    13:00 +35°C° 0 mm 6 mps 758 mmHg 25%
    14:00 +35°C° 0 mm 6 mps 758 mmHg 25%
    15:00 +35°C° 0 mm 6 mps 758 mmHg 25%
    16:00 +35°C° 0 mm 7 mps 757 mmHg 26%
    17:00 +33°C° 0 mm 6 mps 757 mmHg 31%
    18:00 +30°C° 0 mm 6 mps 758 mmHg 37%
    19:00 +28°C° 0 mm 5 mps 758 mmHg 42%
    20:00 +26°C° 0 mm 5 mps 758 mmHg 48%
    21:00 +23°C° 0 mm 5 mps 758 mmHg 53%
    22:00 +21°C° 0 mm 4 mps 759 mmHg 59%
    23:00 +21°C° 0 mm 4 mps 759 mmHg 58%

    30 May, Tuesday

    Time Temperature Precipitation Wind Pressure Humidity
    00:00 +21°C° 0 mm 4 mps 759 mmHg 58%
    01:00 +21°C° 0 mm 4 mps 758 mmHg 58%
    02:00 +20°C° 0 mm 3 mps 758 mmHg 59%
    03:00 +20°C° 0 mm 3 mps 758 mmHg 61%
    04:00 +19°C° 0 mm 3 mps 758 mmHg 63%
    05:00 +21°C° 0 mm 3 mps 759 mmHg 58%
    06:00 +22°C° 0 mm 3 mps 759 mmHg 54%
    07:00 +25°C° 0 mm 3 mps 759 mmHg 50%
    08:00 +26°C° 0 mm 2 mps 760 mmHg 48%
    09:00 +28°C° 0 mm 2 mps 760 mmHg 45%
    10:00 +30°C° 0 mm 2 mps 760 mmHg 42%
    11:00 +31°C° 0 mm 3 mps 760 mmHg 42%
    12:00 +32°C° 0 mm 4 mps 760 mmHg 41%
    13:00 +33°C° 0 mm 5 mps 760 mmHg 41%
    14:00 +32°C° 0 mm 5 mps 759 mmHg 45%
    15:00 +32°C° 0 mm 5 mps 759 mmHg 49%
    16:00 +30°C° 0 mm 5 mps 759 mmHg 53%
    17:00 +29°C° 0 mm 4 mps 760 mmHg 60%
    18:00 +27°C° 0 mm 4 mps 760 mmHg 66%
    19:00 +26°C° 0 mm 3 mps 760 mmHg 73%
    20:00 +24°C° 0 mm 2 mps 761 mmHg 80%
    21:00 +21°C° 0 mm 2 mps 761 mmHg 86%
    22:00 +21°C° 0 mm 1 mps 762 mmHg 93%
    23:00 +21°C° 0 mm 1 mps 761 mmHg 92%

    31 May, Wednesday

    Time Temperature Precipitation Wind Pressure Humidity
    00:00 +21°C° 0 mm 1 mps 761 mmHg 91%
    01:00 +21°C° 0 mm 1 mps 761 mmHg 90%
    02:00 +21°C° 0 mm 1 mps 761 mmHg 87%
    03:00 +21°C° 0 mm 1 mps 761 mmHg 84%
    04:00 +22°C° 0 mm 1 mps 761 mmHg 81%
    05:00 +23°C° 0 mm 1 mps 761 mmHg 75%
    06:00 +24°C° 0 mm 1 mps 761 mmHg 70%
    07:00 +25°C° 0 mm 1 mps 762 mmHg 64%
    08:00 +27°C° 0 mm 2 mps 762 mmHg 55%
    09:00 +29°C° 0 mm 2 mps 762 mmHg 47%
    10:00 +32°C° 0 mm 2 mps 762 mmHg 38%
    11:00 +34°C° 0 mm 3 mps 762 mmHg 36%
    12:00 +34°C° 0 mm 3 mps 761 mmHg 33%
    13:00 +35°C° 0 mm 4 mps 761 mmHg 31%
    14:00 +35°C° 0 mm 5 mps 761 mmHg 31%
    15:00 +35°C° 0 mm 5 mps 761 mmHg 31%
    16:00 +35°C° 0 mm 5 mps 760 mmHg 31%
    17:00 +33°C° 0.1 mm 5 mps 761 mmHg 36%
    18:00 +32°C° 0.1 mm 4 mps 761 mmHg 41%
    19:00 +29°C° 0.1 mm 3 mps 761 mmHg 46%
    20:00 +27°C° 0.2 mm 3 mps 761 mmHg 53%
    21:00 +25°C° 0.2 mm 2 mps 762 mmHg 61%
    22:00 +23°C° 0.2 mm 2 mps 762 mmHg 68%
    23:00 +23°C° 0.2 mm 2 mps 762 mmHg 68%

    1 June, Thursday

    Time Temperature Precipitation Wind Pressure Humidity
    00:00 +23°C° 0.2 mm 2 mps 762 mmHg 67%
    01:00 +23°C° 0.2 mm 2 mps 762 mmHg 67%
    02:00 +21°C° 0.1 mm 2 mps 761 mmHg 67%
    03:00 +22°C° 0.1 mm 1 mps 761 mmHg 67%
    04:00 +22°C° 0.1 mm 1 mps 761 mmHg 67%
    05:00 +23°C° 0.1 mm 1 mps 761 mmHg 63%
    06:00 +25°C° 0.1 mm 1 mps 762 mmHg 60%
    07:00 +26°C° 0.1 mm 1 mps 762 mmHg 56%
    08:00 +28°C° 0 mm 1 mps 762 mmHg 50%
    09:00 +30°C° 0 mm 1 mps 762 mmHg 44%
    10:00 +32°C° 0 mm 1 mps 762 mmHg 37%
    11:00 +34°C° 0 mm 1 mps 762 mmHg 34%
    12:00 +36°C° 0 mm 2 mps 761 mmHg 30%
    13:00 +38°C° 0 mm 3 mps 761 mmHg 27%
    14:00 +37°C° 0 mm 3 mps 761 mmHg 28%
    15:00 +36°C° 0 mm 4 mps 760 mmHg 30%
    16:00 +36°C° 0 mm 5 mps 760 mmHg 31%
    17:00 +34°C° 0.5 mm 4 mps 760 mmHg 39%
    18:00 +31°C° 0.5 mm 3 mps 760 mmHg 47%
    19:00 +28°C° 0.5 mm 3 mps 761 mmHg 54%
    20:00 +27°C° 0.8 mm 2 mps 761 mmHg 61%
    21:00 +25°C° 0.8 mm 2 mps 761 mmHg 67%
    22:00 +23°C° 0.8 mm 1 mps 762 mmHg 74%
    23:00 +23°C° 0.2 mm 1 mps 761 mmHg 73%
    Show more